Terug naar catalogus

NOAA 16 DEB

ActiefPO
NORAD 41082·DEBRIS·🇺🇸 United States

Gelanceerd Sep 21, 2000 vanaf Vandenberg Space Force Base

Loading…

Volgende Passages (komende 24 uur)

TLE

VersSource: Space-Track

Epoch: Sep 14, 2026, 14:00 UTC

1 41082U 00055AR  26257.58395428  .00000314  00000-0  33731-3 0  9999
2 41082  98.7779  14.4005 0216768 322.4218  36.1949 13.70733793539608

Volg NOAA 16 DEB in realtime met AllMySat

Download on the App Store